Time,TemperatureF,DewpointF,PressureIn,WindDirection,WindDirectionDegrees,WindSpeedMPH,WindSpeedGustMPH,Humidity,HourlyPrecipIn,Conditions,Clouds,dailyrainin,SoftwareType,DateUTC
2013-09-04 00:01:00,63.7,57.1,29.74,SW,217,2.0,6.0,79,0.00,,,0.00,Wunderground v.1.13,2013-09-04 04:01:00,
2013-09-04 00:31:00,62.4,56.8,29.74,SSW,211,2.0,2.0,82,0.00,,,0.00,Wunderground v.1.13,2013-09-04 04:31:00,
2013-09-04 01:00:00,61.3,57.1,29.74,SW,221,1.0,6.0,86,0.00,,,0.00,Wunderground v.1.13,2013-09-04 05:00:00,
2013-09-04 01:30:00,61.0,57.1,29.75,SW,223,3.0,6.0,87,0.00,,,0.00,Wunderground v.1.13,2013-09-04 05:30:00,
2013-09-04 02:01:00,60.7,57.1,29.75,SSW,213,3.0,3.0,88,0.00,,,0.00,Wunderground v.1.13,2013-09-04 06:01:00,
2013-09-04 02:31:00,60.4,57.1,29.75,SW,232,2.0,2.0,89,0.00,,,0.00,Wunderground v.1.13,2013-09-04 06:31:00,
2013-09-04 03:01:00,59.8,56.6,29.75,SW,217,2.0,6.0,89,0.00,,,0.00,Wunderground v.1.13,2013-09-04 07:01:00,
2013-09-04 03:30:00,59.2,56.3,29.75,SSW,211,2.0,6.0,90,0.00,,,0.00,Wunderground v.1.13,2013-09-04 07:30:00,
2013-09-04 04:00:00,58.7,56.1,29.76,SSW,206,3.0,3.0,91,0.00,,,0.00,Wunderground v.1.13,2013-09-04 08:00:00,
2013-09-04 04:31:00,58.3,55.7,29.76,SW,220,2.0,6.0,91,0.00,,,0.00,Wunderground v.1.13,2013-09-04 08:31:00,
2013-09-04 05:01:00,58.0,55.4,29.76,SW,235,3.0,6.0,91,0.00,,,0.00,Wunderground v.1.13,2013-09-04 09:01:00,
2013-09-04 05:31:00,57.6,55.0,29.76,SSW,206,3.0,3.0,91,0.00,,,0.00,Wunderground v.1.13,2013-09-04 09:31:00,
2013-09-04 06:00:00,57.5,54.9,29.75,South,191,4.0,4.0,91,0.00,,,0.00,Wunderground v.1.13,2013-09-04 10:00:00,
2013-09-04 06:30:00,57.3,54.7,29.76,WSW,239,5.0,5.0,91,0.00,,,0.00,Wunderground v.1.13,2013-09-04 10:30:00,
2013-09-04 07:01:00,57.5,54.9,29.77,SSW,209,5.0,6.0,91,0.00,,,0.00,Wunderground v.1.13,2013-09-04 11:01:00,
2013-09-04 07:31:00,58.3,55.1,29.77,SW,236,5.0,5.0,89,0.00,,,0.00,Wunderground v.1.13,2013-09-04 11:31:00,
2013-09-04 08:01:00,58.9,55.4,29.77,SW,227,5.0,5.0,88,0.00,,,0.00,Wunderground v.1.13,2013-09-04 12:01:00,
2013-09-04 08:30:00,60.7,56.2,29.78,SSW,212,4.0,6.0,85,0.00,,,0.00,Wunderground v.1.13,2013-09-04 12:30:00,
2013-09-04 09:00:00,61.2,56.0,29.79,SSW,211,5.0,5.0,83,0.00,,,0.00,Wunderground v.1.13,2013-09-04 13:00:00,
2013-09-04 09:31:00,61.8,55.9,29.80,SW,217,4.0,6.0,81,0.00,,,0.00,Wunderground v.1.13,2013-09-04 13:31:00,
2013-09-04 10:01:00,62.3,57.7,29.80,SW,234,4.0,6.0,85,0.00,,,0.00,Wunderground v.1.13,2013-09-04 14:01:00,
2013-09-04 10:31:00,63.2,57.6,29.82,WSW,242,5.0,6.0,82,0.00,,,0.00,Wunderground v.1.13,2013-09-04 14:31:00,
2013-09-04 11:00:00,64.5,57.8,29.82,SW,233,6.0,6.0,79,0.00,,,0.00,Wunderground v.1.13,2013-09-04 15:00:00,
2013-09-04 11:30:00,65.3,57.9,29.82,WSW,237,6.0,6.0,77,0.00,,,0.00,Wunderground v.1.13,2013-09-04 15:30:00,
2013-09-04 12:01:00,66.6,57.7,29.83,WSW,249,5.0,5.0,73,0.00,,,0.00,Wunderground v.1.13,2013-09-04 16:01:00,
2013-09-04 12:31:00,66.0,57.8,29.82,SW,232,4.0,6.0,75,0.00,,,0.00,Wunderground v.1.13,2013-09-04 16:31:00,
2013-09-04 13:01:00,65.3,58.3,29.82,SW,215,2.0,6.0,78,0.00,,,0.00,Wunderground v.1.13,2013-09-04 17:01:00,
2013-09-04 13:30:00,66.0,59.3,29.80,SW,235,3.0,3.0,79,0.00,,,0.00,Wunderground v.1.13,2013-09-04 17:30:00,
2013-09-04 14:00:00,66.0,59.7,29.82,WSW,257,2.0,2.0,80,0.00,,,0.00,Wunderground v.1.13,2013-09-04 18:00:00,
2013-09-04 14:31:00,66.0,59.3,29.82,WSW,247,3.0,3.0,79,0.00,,,0.00,Wunderground v.1.13,2013-09-04 18:31:00,
2013-09-04 15:01:00,64.3,57.3,29.82,WNW,289,1.0,1.0,78,0.00,,,0.00,Wunderground v.1.13,2013-09-04 19:01:00,
2013-09-04 15:31:00,62.9,57.7,29.82,WNW,299,1.0,1.0,83,0.00,,,0.00,Wunderground v.1.13,2013-09-04 19:31:00,
2013-09-04 16:00:00,62.0,58.1,29.82,West,263,2.0,6.0,87,0.00,,,0.01,Wunderground v.1.13,2013-09-04 20:00:00,
2013-09-04 16:30:00,63.1,58.8,29.82,West,261,1.0,1.0,86,0.00,,,0.01,Wunderground v.1.13,2013-09-04 20:30:00,
2013-09-04 17:01:00,64.0,59.7,29.82,West,261,1.0,6.0,86,0.00,,,0.01,Wunderground v.1.13,2013-09-04 21:01:00,
2013-09-04 17:31:00,64.5,60.2,29.82,WSW,241,1.0,1.0,86,0.00,,,0.01,Wunderground v.1.13,2013-09-04 21:31:00,
2013-09-04 18:01:00,64.0,60.1,29.81,WSW,241,0.0,6.0,87,0.00,,,0.01,Wunderground v.1.13,2013-09-04 22:01:00,
2013-09-04 18:30:00,63.7,60.7,29.81,WSW,241,0.0,6.0,90,0.00,,,0.01,Wunderground v.1.13,2013-09-04 22:30:00,
2013-09-04 19:00:00,63.4,60.7,29.82,WSW,241,1.0,6.0,91,0.00,,,0.01,Wunderground v.1.13,2013-09-04 23:00:00,
2013-09-04 19:31:00,63.2,60.8,29.82,WSW,241,0.0,6.0,92,0.04,,,0.03,Wunderground v.1.13,2013-09-04 23:31:00,
2013-09-04 20:01:00,62.7,60.6,29.83,WSW,241,0.0,6.0,93,0.00,,,0.03,Wunderground v.1.13,2013-09-05 00:01:00,
2013-09-04 20:31:00,62.1,60.7,29.83,WSW,241,1.0,1.0,95,0.00,,,0.03,Wunderground v.1.13,2013-09-05 00:31:00,
2013-09-04 21:00:00,61.3,60.2,29.84,WSW,241,0.0,6.0,96,0.00,,,0.03,Wunderground v.1.13,2013-09-05 01:00:00,
2013-09-04 21:31:00,60.9,59.8,29.85,WSW,241,0.0,6.0,96,0.00,,,0.03,Wunderground v.1.13,2013-09-05 01:31:00,
2013-09-04 22:01:00,60.2,59.1,29.84,WSW,241,0.0,6.0,96,0.00,,,0.03,Wunderground v.1.13,2013-09-05 02:01:00,
2013-09-04 22:31:00,59.8,57.8,29.85,West,275,2.0,2.0,93,0.00,,,0.03,Wunderground v.1.13,2013-09-05 02:31:00,
2013-09-04 23:01:00,59.9,51.6,29.86,NNE,24,3.0,3.0,74,0.00,,,0.03,Wunderground v.1.13,2013-09-05 03:01:00,
2013-09-04 23:30:00,58.6,50.3,29.85,NNE,20,1.0,1.0,74,0.00,,,0.03,Wunderground v.1.13,2013-09-05 03:30:00,